N4BHM Weather Reports


time (UTC)temp
C
wind
direction
speed
KPH
gust
KPH
rain 1hr
cm
rain 24hr
cm
rain mn
cm
humidity
%
barometer
mb
20260504050003 9 311 1.6 4.8 0.00 0.00 0.00 54 1018.9
20260504045003 9 210 1.6 1.6 0.00 0.00 0.00 54 1018.7
20260504044504 9 232 3.2 4.8 0.00 0.00 0.00 54 1018.7
20260504044003 9 274 3.2 3.2 0.00 0.00 0.00 55 1018.7
20260504043503 9 278 3.2 4.8 0.00 0.00 0.00 54 1018.6
20260504043003 9 278 3.2 8.0 0.00 0.00 0.00 54 1018.4
20260504042503 9 270 0.0 8.0 0.00 0.00 0.00 54 1018.3
20260504042003 9 222 3.2 11.3 0.00 0.00 0.00 53 1018.3
20260504041503 9 332 4.8 9.7 0.00 0.00 0.00 53 1018.4
20260504040503 9 251 6.4 4.8 0.00 0.00 0.00 53 1018.7
20260504040004 9 288 4.8 4.8 0.00 0.00 0.00 52 1018.5
20260504035503 9 292 4.8 9.7 0.00 0.00 0.00 53 1018.6
20260504035003 9 247 6.4 9.7 0.00 0.00 0.00 52 1018.7
20260504034503 8 285 4.8 8.0 0.00 0.00 0.00 53 1018.7
20260504034004 8 263 6.4 8.0 0.00 0.00 0.00 52 1018.6
20260504033503 8 281 4.8 8.0 0.00 0.00 0.00 52 1018.6
20260504033003 8 285 8.0 8.0 0.00 0.00 0.00 52 1018.6
20260504032503 8 204 4.8 8.0 0.00 0.00 0.00 53 1018.5
20260504032003 8 270 4.8 8.0 0.00 0.00 0.00 53 1018.6
20260504031503 8 242 4.8 8.0 0.00 0.00 0.00 53 1018.7
20260504031003 8 238 1.6 4.8 0.00 0.00 0.00 52 1018.7
20260504030503 9 263 4.8 4.8 0.00 0.00 0.00 52 1018.7
20260504025003 9 304 0.0 3.2 0.00 0.00 0.00 50 1018.6
20260504024504 9 268 3.2 4.8 0.00 0.00 0.00 50 1018.7
20260504024003 9 267 3.2 3.2 0.00 0.00 0.00 50 1018.7
20260504023003 10 277 3.2 8.0 0.00 0.00 0.00 48 1018.8
20260504022003 9 274 3.2 4.8 0.00 0.00 0.00 48 1018.6
20260504021503 10 284 4.8 8.0 0.00 0.00 0.00 48 1018.5
20260504021004 10 250 3.2 4.8 0.00 0.00 0.00 47 1018.4
20260504020003 10 256 3.2 4.8 0.00 0.00 0.00 46 1018.4
20260504015003 10 292 4.8 4.8 0.00 0.00 0.00 47 1018.3
20260504014503 10 292 3.2 4.8 0.00 0.00 0.00 46 1018.3
20260504013503 10 301 1.6 4.8 0.00 0.00 0.00 46 1018.1
20260504013003 10 292 4.8 8.0 0.00 0.00 0.00 46 1018.1
20260504012004 10 292 4.8 4.8 0.00 0.00 0.00 48 1018.1
20260504011003 10 287 6.4 8.0 0.00 0.00 0.00 47 1017.9
20260504010503 10 256 4.8 9.7 0.00 0.00 0.00 47 1017.9
20260504010004 10 263 8.0 9.7 0.00 0.00 0.00 48 1017.9
20260504005004 10 255 4.8 8.0 0.00 0.00 0.00 47 1017.8
20260504004503 11 260 6.4 8.0 0.00 0.00 0.00 46 1017.7
20260504004004 11 258 6.4 8.0 0.00 0.00 0.00 46 1017.6
20260504003504 11 275 8.0 8.0 0.00 0.00 0.00 46 1017.5
20260504003003 11 246 6.4 4.8 0.00 0.00 0.00 45 1017.6
20260504002503 11 322 6.4 9.7 0.00 0.00 0.00 45 1017.5
20260504002004 11 250 4.8 8.0 0.00 0.00 0.00 44 1017.4
20260504001503 12 289 6.4 4.8 0.00 0.00 0.00 43 1017.6
20260504001004 12 292 8.0 4.8 0.00 0.00 0.00 43 1017.6
20260504000003 12 296 9.7 8.0 0.00 0.00 0.00 43 1017.6
20260503235503 12 293 8.0 8.0 0.00 0.00 0.00 42 1017.5
20260503235004 12 296 4.8 4.8 0.00 0.00 0.00 42 1017.5
20260503233503 13 265 1.6 3.2 0.00 0.00 0.00 40 1017.5
20260503232003 13 299 1.6 3.2 0.00 0.00 0.00 34 1017.4
20260503231504 14 280 0.0 3.2 0.00 0.00 0.00 33 1017.4
20260503231004 14 293 3.2 4.8 0.00 0.00 0.00 34 1017.4
20260503230503 14 308 1.6 8.0 0.00 0.00 0.00 32 1017.3
20260503230004 14 267 11.3 14.5 0.00 0.00 0.00 31 1017.2
20260503225504 14 282 1.6 9.7 0.00 0.00 0.00 32 1017.3
20260503225004 15 182 6.4 9.7 0.00 0.00 0.00 30 1017.3
20260503223003 15 150 3.2 12.9 0.00 0.00 0.00 31 1017.4
20260503222503 15 214 3.2 9.7 0.00 0.00 0.00 29 1017.5
20260503222004 15 88 0.0 14.5 0.00 0.00 0.00 29 1017.5
20260503221504 15 280 6.4 11.3 0.00 0.00 0.00 29 1017.5
20260503221004 15 209 4.8 12.9 0.00 0.00 0.00 28 1017.6
20260503220503 15 297 9.7 19.3 0.00 0.00 0.00 29 1017.7
20260503220003 15 227 16.1 20.9 0.00 0.00 0.00 28 1017.6
20260503215504 15 332 4.8 20.9 0.00 0.00 0.00 27 1017.6
20260503215003 15 244 9.7 22.5 0.00 0.00 0.00 29 1017.6
20260503214504 15 163 4.8 19.3 0.00 0.00 0.00 29 1017.7
20260503214004 15 267 4.8 19.3 0.00 0.00 0.00 29 1017.7
20260503213504 15 187 11.3 14.5 0.00 0.00 0.00 29 1017.7
20260503213003 15 204 12.9 19.3 0.00 0.00 0.00 28 1017.8
20260503212503 15 209 12.9 16.1 0.00 0.00 0.00 29 1017.8
20260503212004 15 221 9.7 22.5 0.00 0.00 0.00 28 1017.8
20260503211004 15 254 8.0 19.3 0.00 0.00 0.00 29 1017.8
20260503210504 15 245 6.4 16.1 0.00 0.00 0.00 29 1017.9
20260503210004 15 211 12.9 20.9 0.00 0.00 0.00 30 1017.9
20260503205503 15 243 14.5 16.1 0.00 0.00 0.00 30 1017.9
20260503205003 15 191 4.8 16.1 0.00 0.00 0.00 29 1017.9
20260503204504 15 95 3.2 12.9 0.00 0.00 0.00 30 1018.0
20260503204003 15 193 16.1 20.9 0.00 0.00 0.00 30 1018.1
20260503203504 15 203 11.3 25.7 0.00 0.00 0.00 30 1018.2
20260503203004 15 253 8.0 16.1 0.00 0.00 0.00 30 1018.2
20260503202504 15 216 16.1 22.5 0.00 0.00 0.00 30 1018.2
20260503202004 15 219 12.9 24.1 0.00 0.00 0.00 30 1018.3
20260503201504 15 213 14.5 22.5 0.00 0.00 0.00 29 1018.3
20260503201004 15 181 16.1 29.0 0.00 0.00 0.00 30 1018.4
20260503200504 15 241 14.5 24.1 0.00 0.00 0.00 32 1018.5
20260503195003 15 216 8.0 16.1 0.00 0.00 0.00 31 1018.8
20260503194004 15 205 16.1 25.7 0.00 0.00 0.00 32 1019.0
20260503193504 14 210 16.1 25.7 0.00 0.00 0.00 34 1019.1
20260503192004 15 219 16.1 22.5 0.00 0.00 0.00 32 1019.3
20260503191504 15 213 9.7 14.5 0.00 0.00 0.00 35 1019.2
20260503191004 15 178 12.9 19.3 0.00 0.00 0.00 35 1019.2
20260503190504 15 352 11.3 22.5 0.00 0.00 0.00 32 1019.3
20260503190004 15 166 9.7 16.1 0.00 0.00 0.00 35 1019.4
20260503185504 14 296 12.9 19.3 0.00 0.00 0.00 33 1019.6
20260503185004 14 354 14.5 19.3 0.00 0.00 0.00 34 1019.7
20260503184503 14 215 9.7 19.3 0.00 0.00 0.00 36 1019.7
20260503184004 14 212 20.9 33.8 0.00 0.00 0.00 35 1019.8
20260503183504 14 232 11.3 22.5 0.00 0.00 0.00 34 1019.8
20260503183003 14 344 9.7 25.7 0.00 0.00 0.00 37 1020.0
20260503182502 14 244 9.7 19.3 0.00 0.00 0.00 37 1020.0
20260503182003 14 345 11.3 20.9 0.00 0.00 0.00 34 1020.1
20260503181503 14 233 8.0 22.5 0.00 0.00 0.00 35 1020.0
20260503180502 14 358 19.3 22.5 0.00 0.00 0.00 33 1020.2
20260503180003 14 204 17.7 29.0 0.00 0.00 0.00 37 1020.2
20260503175502 14 207 12.9 16.1 0.00 0.00 0.00 37 1020.3
20260503175002 14 107 12.9 20.9 0.00 0.00 0.00 36 1020.3
20260503174003 13 271 11.3 25.7 0.00 0.00 0.00 39 1020.5
20260503173502 13 137 8.0 16.1 0.00 0.00 0.00 35 1020.6
20260503172502 13 2 9.7 19.3 0.00 0.00 0.00 36 1020.8
20260503172003 13 258 12.9 16.1 0.00 0.00 0.00 37 1020.8
20260503171502 13 251 14.5 22.5 0.00 0.00 0.00 36 1020.9
20260503171003 13 239 12.9 20.9 0.00 0.00 0.00 38 1021.0
20260503151002 12 225 12.9 19.3 0.00 0.00 0.00 39 1021.9
20260503150502 12 196 11.3 24.1 0.00 0.00 0.00 38 1021.9
20260503131002 7 79 3.2 16.1 0.00 0.00 0.00 53 1021.9
20260503130503 6 308 16.1 22.5 0.00 0.00 0.00 53 1021.8
20260503110502 3 286 1.6 8.0 0.00 0.00 0.00 66 1020.7
20260503090502 4 191 3.2 12.9 0.00 0.00 0.00 62 1018.9
20260503081503 4 165 0.0 0.0 0.00 0.00 0.00 69 1018.5
20260503081003 4 165 0.0 0.0 0.00 0.00 0.00 69 1018.4
20260503080503 4 165 0.0 0.0 0.00 0.00 0.00 69 1018.4
20260503072503 5 165 0.0 0.0 0.00 0.00 0.00 67 1018.1